Flag for U.S.A. Weather past 2 weeks in Angels Camp, California, U.S.A.

Now
71 °F

Sunny.


Feels Like: 76 °F
Forecast: 46 / 76 °F
Wind: 16 mph from Northwest

Location: Modesto City-County-Sham Field

Current Time: Oct 21, 2014 at 5:21:23 PM

Latest Report: Oct 21, 2014 at 4:53 PM


Visibility: 10 mi

Pressure: 29.98 "Hg

Humidity: 32%

Dew point: 40 °F

Location of Angels CampLocation

Historic Weather in Angels Camp — Graph

°F

Angels Camp temperature yesterday

Maximum temperature yesterday: 76 °F (at 1:53 PM)
Minimum temperature yesterday: 59 °F (at 5:53 AM)
Average temperature yesterday: 65 °F

Past Weeks' High & Low Weather Summary

 TemperatureHumidityPressure
High94 °F (Oct 6, 3:53 PM)93% (Oct 19, 5:53 AM)30.09 "Hg (Oct 19, 5:53 AM)
Low51 °F (Oct 21, 7:53 AM)12% (Oct 8, 3:53 PM)29.76 "Hg (Oct 14, 2:53 PM)
Average69 °F53%29.91 "Hg
* Reported Oct 6 3:53 PM — Oct 21 3:53 PM, Angels Camp, Weather by CustomWeather, © 2014

Note: Actual official high and low records may vary slightly from our data, if they occured in-between our weather recording intervals... More about our weather records

Advertising

Angels Camp weather history for previous 24 hours

 ConditionsComfort  
Time TempWeatherWind HumidityBarometerVisibility
3:53 PM
Oct 21
71 °FSunny.15 mph34%29.99 "Hg10 mi
2:53 PM71 °FSunny.17 mph35%29.99 "Hg10 mi
1:53 PM70 °FSunny.14 mph37%30.01 "Hg10 mi
12:53 PM69 °FSunny.16 mph38%30.04 "Hg10 mi
11:53 AM67 °FSunny.16 mph41%30.06 "Hg10 mi
10:53 AM64 °FSunny.15 mph47%30.07 "Hg10 mi
9:53 AM61 °FSunny.12 mph58%30.08 "Hg10 mi
8:53 AM57 °FSunny.16 mph72%30.09 "Hg10 mi
7:53 AM51 °FClear.5 mph86%30.07 "Hg10 mi
6:53 AM52 °FClear.5 mph86%30.06 "Hg10 mi
5:53 AM53 °FClear.5 mph83%30.05 "Hg10 mi
4:53 AM54 °FClear.9 mph83%30.05 "Hg10 mi
3:53 AM56 °FClear.10 mph81%30.05 "Hg10 mi
2:53 AM54 °FClear.6 mph86%30.06 "Hg10 mi
1:53 AM57 °FClear.7 mph81%30.08 "Hg10 mi
12:53 AM58 °FClear.8 mph81%30.06 "Hg10 mi
11:53 PM
Oct 20
60 °FClear.6 mph75%30.05 "Hg10 mi
10:53 PM60 °FClear.7 mph72%30.03 "Hg10 mi
9:53 PM63 °FPassing clouds.10 mph65%30.02 "Hg10 mi
8:53 PM65 °FOvercast.13 mph59%30.00 "Hg10 mi
7:53 PM66 °FOvercast.16 mph54%29.98 "Hg10 mi
6:53 PM67 °FPartly sunny.15 mph57%29.96 "Hg10 mi
5:53 PM66 °FPartly sunny.16 mph56%29.93 "Hg10 mi
Weather by CustomWeather, © 2014

See weather overviewHow to use our weather pages